This is the latest recevied weather packets stored in our database for station/object N1ORT. If no packets are shown the sender has not sent any weather packets the latest 10 day(s).
| Time | Temp. | Humidity | Pressure | Rain* | Wind** | Luminosity | Snow |
|---|---|---|---|---|---|---|---|
| 1777980451 | 14.44° C | 71% | 1007.5 hPa | 0 mm | - | 117 W/m² | - |
| 1777980150 | 14.44° C | 71% | 1007.4 hPa | 0 mm | - | 110 W/m² | - |
| 1777979849 | 13.89° C | 72% | 1007.7 hPa | 0 mm | - | 75 W/m² | - |
| 1777979546 | 13.89° C | 71% | 1007.5 hPa | 0 mm | - | 81 W/m² | - |
| 1777979242 | 13.89° C | 72% | 1007.4 hPa | 0 mm | - | 77 W/m² | - |
| 1777978939 | 13.89° C | 72% | 1007.4 hPa | 0 mm | - | 72 W/m² | - |
| 1777978636 | 13.33° C | 72% | 1007.3 hPa | 0 mm | - | 57 W/m² | - |
| 1777978331 | 13.33° C | 73% | 1007.2 hPa | 0 mm | - | 60 W/m² | - |
| 1777978028 | 12.78° C | 73% | 1007.4 hPa | 0 mm | - | 51 W/m² | - |
| 1777977725 | 12.78° C | 74% | 1007.2 hPa | 0 mm | - | 48 W/m² | - |
| 1777977422 | 12.78° C | 74% | 1007.4 hPa | 0 mm | - | 44 W/m² | - |
| 1777977120 | 12.78° C | 75% | 1007.3 hPa | 0 mm | - | 42 W/m² | - |
| 1777976817 | 12.22° C | 75% | 1007.4 hPa | 0 mm | - | 40 W/m² | - |
| 1777976514 | 12.22° C | 75% | 1007.3 hPa | 0 mm | - | 43 W/m² | - |
| 1777976214 | 12.22° C | 75% | 1007.7 hPa | 0 mm | - | 28 W/m² | - |
| 1777975909 | 12.22° C | 75% | 1007.4 hPa | 0 mm | - | 22 W/m² | - |
| 1777975605 | 11.67° C | 75% | 1007.3 hPa | 0 mm | - | 16 W/m² | - |
| 1777975303 | 11.67° C | 75% | 1007.3 hPa | 0 mm | - | 14 W/m² | - |
| 1777974998 | 11.67° C | 75% | 1007.4 hPa | 0 mm | - | 11 W/m² | - |
| 1777974696 | 11.67° C | 76% | 1007.4 hPa | 0 mm | - | 8 W/m² | - |
| 1777974392 | 11.67° C | 76% | 1007.3 hPa | 0 mm | - | 6 W/m² | - |
| 1777974088 | 11.11° C | 76% | 1007.6 hPa | 0 mm | - | 4 W/m² | - |
| 1777973785 | 11.11° C | 76% | 1007.4 hPa | 0 mm | - | 3 W/m² | - |
| 1777973482 | 11.11° C | 76% | 1007.6 hPa | 0 mm | - | 2 W/m² | - |
| 1777973179 | 11.11° C | 76% | 1007.7 hPa | 0 mm | - | 1 W/m² | - |
* Rain latest hour (hover to see other rain measurements)
** Current wind speed in m/s (hover to see current wind gust speed)